Regional Weather Roundup
Issued by NWS

Home | Current Version | Previous Version | Text Only | Print | Product List | Glossary On
Versions: 1 2 3 4 5 6 7 8 9 10 11 12 13 14 15 16 17 18 19 20 21 22 23 24 25 26 27 28 29 30 31 32 33 34 35 36 37 38 39 40 41 42 43 44 45 46 47 48 49 50
000
ASUS42 KKEY 180910
RWRKEY

FLORIDA REGIONAL WEATHER ROUNDUP FOR THE FLORIDA KEYS
NATIONAL WEATHER SERVICE KEY WEST FLORIDA
400 AM EST MON DEC 18 2017

...SOUTH FLORIDA AND THE KEYS...

CITY           SKY/WX    TMP DP  RH WIND       PRES   REMARKS
FORT MYERS     CLEAR     64  64 100 CALM      30.20S FOG
SW REGIONAL AP CLEAR     64  64 100 NE5       30.20F FOG
NAPLES         PTCLDY    66  65  96 E3        30.20R
MIAMI          MOCLDY    73  70  90 E3        30.19S
WEST KENDALL   CLEAR     65  65 100 CALM      30.19S FOG
HOMESTEAD      CLEAR     67  67 100 CALM      30.18S
MARATHON       CLEAR     71  68  90 NE3       30.17S
KEY WEST INTL  CLEAR     73  71  93 NE6       30.18R

...INTERNATIONAL WEATHER...

CITY           SKY/WX    TMP DP  RH WIND       PRES   REMARKS
NASSAU BAHAMAS PTCLDY    73  72  94 NE3       30.20
CANCUN MEXICO  PTCLDY    79  73  83 E8        30.07F
COZUMEL MEXICO PTCLDY    75  73  94 E7        30.05S

ADJACENT COASTAL WATERS...

STATION/POSITION TIME  SKY/WX   TEMP    WIND        PRES    WAVE
                                AIR SEA DIR/SP/G            HT/PER
                 (UTC)          (F)     (DEG/KT/KT) (MB)    (FT/S)
PULASKI SHOAL LI 0900            74     100/ 13/ 15 1021.6S
SAND KEY         0850            73                 1022.2F
LONG KEY         NOT AVBL
MOLASSES REEF    0900            76 77  120/ 10/ 12 1022.2R
FOWEY ROCKS      0900            76 72  110/ 12/ 13 1022.8R
Buoy 42097       0830               76                N/A     2/ 4

$$



USA.gov is the U.S. government's official web portal to all federal, state and local government web resources and services.